User: anonymous   Login
Location: Theydon Bois
(51.6750°N, 0.1050°E)
Time: 06:51:15
(UTC+01:00)
Language:

Aureole 1 Rocket - Orbit

View from above orbital plane
View from above orbital plane
View from above satellite
View from above satellite

Ground track
Ground track

The orbit data is extracted from the following two-line orbital elements,

1  5730U 71119B   17290.48389534 +.00001072 +00000-0 +72154-4 0  9990
2  5730 073.8916 281.4607 0697638 138.6441 226.9747 14.02051144222842
Epoch (UTC): 17 October 2017 11:36:48
Eccentricity: 0.0697638
inclination: 73.8916°
perigee height: 380 km
apogee height: 1393 km
right ascension of ascending node: 281.4607°
argument of perigee: 138.6441°
revolutions per day: 14.02051144
mean anomaly at epoch: 226.9747°
orbit number at epoch: 22284

The dashed part of the orbit path shows where the satellite is in the earth's shadow,  

DLR